Location: Altmatt
(47.1333°N, 8.7000°E)
Time: 00:08:27
(UTC+00:00)

Cosmos 2344 - Pass Details

Date: 13 July 2020
Orbit: 1249 x 2993 km, 63.3° (Epoch: 11 August)

Event Time Altitude Azimuth Distance (km) Brightness Sun altitude
Rises 20:48:37 0° 204° (SSW) 4,305 6.1 -12.1°
Reaches altitude 10° 20:51:27 10° 201° (SSW) 3,263 5.4 -12.4°
Maximum altitude 20:58:48 63° 122° (ESE) 1,392 3.5 -13.1°
Drops below altitude 10° 21:06:38 10° 44° (NE) 3,466 6.0 -13.9°
Sets 21:09:44 0° 41° (NE) 4,592 6.7 -14.2°
